Massena, NY

3:29 AM EST on January 20, 2018 (GMT -0500)
Massena International-Richards

Weather History for KMSS - September, 2011

Change the Weather History Date:

Tuesday, September 27, 2011

  Actual Average Record
Temperature  
Mean Temperature 65 °F 54 °F  
Max Temperature 78 °F 65 °F 89 °F (2017)
Min Temperature 51 °F 43 °F 26 °F (1956)
Degree Days  
Heating Degree Days 0 11  
Month to date heating degree days 105 186  
Since 1 July heating degree days 115 261  
Cooling Degree Days 0 0  
Month to date cooling degree days 51 24  
Year to date cooling degree days 558 360  
Growing Degree Days 14 (Base 50)    
Moisture  
Dew Point 54 °F    
Average Humidity 72    
Maximum Humidity 96    
Minimum Humidity 48    
Precipitation  
Precipitation 0.00 in 0.13 in 2.62 in (1985)
Month to date precipitation 1.83 3.28  
Year to date precipitation 25.26 25.82  
Sea Level Pressure  
Sea Level Pressure 29.97 in    
Wind  
Wind Speed 8 mph (ENE)    
Max Wind Speed 18 mph    
Max Gust Speed 22 mph    
Visibility 7 miles    
Events      
T = Trace of Precipitation, MM = Missing Value Source: NWS Daily Summary

Daily Weather History Graph

Daily Weather History Graph

Search for Another Location

Airport or City:

Trip Planner

Search our weather history database for the weather conditions in past years. The results will help you decide how hot, cold, wet, or windy it might be!

Date:

Astronomy

Sep. 27, 2011 Rise Set
Actual Time 6:52 AM EDT 6:47 PM EDT
Civil Twilight 6:22 AM EDT 7:17 PM EDT
Nautical Twilight 5:48 AM EDT 7:51 PM EDT
Astronomical Twilight 5:13 AM EDT 8:25 PM EDT
Moon 7:06 AM EDT (9/27) 6:32 PM EDT (9/27)
Length of Visible Light 12h 54m
Length of Day
11h 55m
New Moon, 0% of the Moon is Illuminated
Sep 27
New Moon
Oct 3
First Quarter
Oct 11
Full
Oct 19
Last Quarter
Oct 26
New

Hourly Weather History & Observations

Time (EDT) Temp. Dew Point Humidity Pressure Visibility Wind Dir Wind Speed Gust Speed Precip Events Conditions
12:53 AM 53.1 °F 51.1 °F 93% 29.98 in 7.0 mi Calm Calm - N/A   Clear
12:58 AM 51.8 °F 51.8 °F 100% 29.98 in 1.5 mi Calm Calm - N/A   Clear
1:05 AM 51.8 °F 50.0 °F 94% 29.98 in 1.0 mi Calm Calm - N/A   Clear
1:08 AM 53.6 °F 51.8 °F 94% 29.98 in 2.5 mi Calm Calm - N/A   Clear
1:15 AM 51.8 °F 50.0 °F 94% 29.98 in 9.0 mi Calm Calm - N/A   Clear
1:53 AM 52.0 °F 50.0 °F 93% 29.98 in 9.0 mi Calm Calm - N/A   Clear
2:53 AM 53.1 °F 52.0 °F 96% 29.98 in 5.0 mi Calm Calm - N/A   Clear
3:43 AM 51.8 °F 50.0 °F 94% 29.97 in 1.5 mi Calm Calm - N/A   Clear
3:53 AM 53.1 °F 51.1 °F 93% 29.97 in 2.5 mi NE 3.5 mph - N/A   Clear
4:00 AM 53.6 °F 51.8 °F 94% 29.97 in 4.0 mi Calm Calm - N/A   Clear
4:53 AM 53.1 °F 51.1 °F 93% 29.98 in 8.0 mi Calm Calm - N/A   Clear
5:29 AM 51.8 °F 51.8 °F 100% 29.98 in 1.5 mi Calm Calm - N/A   Clear
5:37 AM 51.8 °F 50.0 °F 94% 29.98 in 1.2 mi Calm Calm - N/A   Clear
5:39 AM 51.8 °F 50.0 °F 94% 29.97 in 2.5 mi Calm Calm - N/A   Clear
5:53 AM 52.0 °F 50.0 °F 93% 29.98 in 4.0 mi Calm Calm - N/A   Clear
6:53 AM 52.0 °F 50.0 °F 93% 29.99 in 9.0 mi Calm Calm - N/A   Clear
7:53 AM 55.9 °F 52.0 °F 87% 30.00 in 10.0 mi NE 3.5 mph - N/A   Clear
8:53 AM 62.1 °F 55.0 °F 78% 30.00 in 10.0 mi ENE 5.8 mph - N/A   Scattered Clouds
9:53 AM 66.9 °F 55.9 °F 68% 30.00 in 10.0 mi ENE 5.8 mph - N/A   Overcast
10:53 AM 71.1 °F 57.9 °F 63% 29.99 in 10.0 mi NE 10.4 mph - N/A   Overcast
11:53 AM 73.0 °F 57.9 °F 59% 29.99 in 10.0 mi ENE 10.4 mph - N/A   Scattered Clouds
12:53 PM 73.0 °F 57.9 °F 59% 29.98 in 10.0 mi NE 13.8 mph - N/A   Overcast
1:53 PM 75.2 °F 57.2 °F 53% 29.96 in 10.0 mi ENE 15.0 mph - N/A   Clear
2:53 PM 77.0 °F 57.9 °F 52% 29.95 in 10.0 mi NE 15.0 mph - N/A   Clear
3:53 PM 78.1 °F 57.9 °F 50% 29.94 in 10.0 mi ENE 16.1 mph 21.9 mph N/A   Clear
4:53 PM 75.9 °F 57.0 °F 52% 29.93 in 10.0 mi ENE 11.5 mph - N/A   Clear
5:53 PM 73.0 °F 57.9 °F 59% 29.92 in 10.0 mi ENE 8.1 mph - N/A   Scattered Clouds
6:53 PM 69.1 °F 57.9 °F 68% 29.93 in 10.0 mi NE 8.1 mph - N/A   Partly Cloudy
7:53 PM 71.1 °F 55.0 °F 57% 29.94 in 10.0 mi ENE 11.5 mph - N/A   Overcast
8:53 PM 70.0 °F 55.0 °F 59% 29.95 in 10.0 mi ENE 10.4 mph - N/A   Overcast
9:53 PM 69.1 °F 55.0 °F 61% 29.96 in 10.0 mi ENE 8.1 mph - N/A   Overcast
10:53 PM 69.1 °F 55.9 °F 63% 29.95 in 10.0 mi ENE 9.2 mph - N/A   Overcast
11:53 PM 66.9 °F 57.9 °F 73% 29.95 in 10.0 mi ENE 6.9 mph - N/A   Mostly Cloudy